Theta_e
352 347 345 344 344 343 342 342 343 342 341 339 338 338 338 337 336 336 337 339 341 340 338 336 335 335 336 336 337 337 335 333 335 335 334 332 329 327 329 331 341 336 330
352 349 345 344 343 342 342 341 338 337 339 340 341 342 340 339 335 334 335 339 339 340 338 338 338 338 338 337 337 337 336 334 335 334 334 332 330 328 334 336 340 336 335
350 350 346 344 342 341 340 336 334 333 334 335 337 338 335 334 335 336 337 339 337 338 341 338 339 339 338 336 338 336 334 339 333 333 341 346 346 332 334 332 335 336 338
350 350 350 344 340 337 335 335 335 335 334 334 333 334 335 335 336 337 337 337 337 336 336 338 337 335 339 336 336 336 335 333 335 336 346 346 344 330 333 332 336 333 330
348 349 348 339 336 333 332 332 332 329 330 335 335 336 336 336 338 341 339 339 343 340 336 336 338 339 339 339 333 331 338 332 335 345 347 345 343 337 334 336 331 330 337
347 348 340 336 334 332 331 330 332 333 326 325 334 336 338 344 343 337 339 340 344 336 339 338 336 339 341 340 332 331 330 333 336 345 346 342 347 331 330 330 330 336 333
346 347 341 334 332 330 330 331 332 327 322 328 335 337 338 340 342 333 339 341 340 340 336 337 336 336 338 338 335 332 333 332 345 344 344 343 345 333 328 334 329 331 330
344 345 346 332 330 330 330 333 331 327 322 324 335 336 337 341 342 336 337 330 329 328 330 335 334 335 335 335 332 333 336 338 343 345 342 343 341 338 333 339 335 327 326
343 344 345 344 335 330 331 332 336 334 333 344 327 327 328 330 330 330 335 339 341 341 341 334 335 334 330 334 338 339 340 338 345 346 339 342 338 333 328 338 340 330 327
343 343 344 347 349 344 344 331 332 333 335 329 333 333 332 332 332 332 333 334 332 332 334 338 339 333 335 333 335 336 337 337 346 347 342 344 339 338 336 335 330 329 328
344 343 343 346 348 348 346 337 333 343 333 333 333 334 341 329 344 334 343 334 333 337 339 339 335 336 337 336 334 333 332 341 342 344 344 342 335 338 335 334 331 327 327
344 343 344 347 347 351 347 348 348 349 347 335 331 340 330 332 334 331 334 334 334 335 337 334 335 338 338 345 340 342 343 341 341 341 344 341 334 335 337 337 336 334 334
343 344 344 346 349 348 348 347 348 349 348 339 331 328 328 329 331 333 337 334 334 335 336 345 346 344 344 346 347 344 342 344 342 340 340 341 338 335 336 338 337 333 333
342 344 344 345 348 349 348 348 344 345 347 345 329 328 328 335 336 334 336 336 340 339 341 343 344 345 344 344 345 346 343 342 344 343 342 341 332 329 330 329 334 335 334
343 344 344 344 345 348 346 348 334 338 344 345 344 337 328 330 337 343 342 339 341 341 341 341 343 344 346 344 342 344 346 342 339 343 344 343 340 329 331 337 336 333 332
343 344 344 344 346 342 348 348 338 346 347 345 340 335 338 341 343 344 344 344 343 344 343 344 343 343 344 344 343 344 346 342 341 341 341 345 342 338 338 339 339 338 334
344 345 346 346 347 342 343 344 342 340 346 345 339 334 334 336 345 343 345 343 346 346 344 346 345 345 343 341 345 345 345 340 337 338 341 343 345 345 339 338 338 337 335
346 348 350 349 349 350 349 348 349 351 349 348 347 342 343 344 345 345 345 345 347 346 346 346 345 345 344 344 343 344 345 342 339 339 341 341 341 342 347 343 339 339 340
349 352 353 353 352 350 345 348 351 349 350 350 349 345 344 344 343 344 346 346 345 345 345 346 346 343 344 344 345 346 342 340 339 338 340 343 341 340 345 347 340 340 339
350 352 353 354 353 351 348 344 348 350 350 351 352 350 344 345 346 346 345 345 344 346 345 344 346 345 344 347 345 346 344 341 339 339 341 343 343 343 348 346 347 342 339
350 351 353 353 354 351 348 349 352 351 345 344 344 344 344 345 345 346 346 346 346 346 347 346 345 345 346 347 346 347 347 346 341 340 341 342 340 340 346 348 347 346 346
349 351 353 348 346 346 354 347 348 350 351 346 343 344 345 345 346 347 347 348 348 346 347 347 346 346 345 345 345 344 346 347 344 342 343 340 341 342 341 345 347 348 346
347 349 351 345 343 347 348 345 345 344 343 343 346 347 345 345 346 346 347 346 348 347 347 346 346 346 346 344 340 343 345 347 342 341 342 342 342 344 341 342 342 346 342
347 347 349 348 343 343 343 345 343 347 347 347 344 343 340 345 346 344 346 347 346 347 348 347 347 346 346 344 342 338 339 343 343 343 343 344 345 347 344 343 343 345 341
347 347 348 348 344 344 344 342 343 341 342 343 343 340 339 343 344 343 344 344 346 348 348 348 348 346 344 344 344 339 340 343 342 343 343 342 340 341 340 345 342 340 340
349 348 349 346 345 344 343 342 344 344 343 342 337 338 337 339 342 340 342 343 344 343 346 347 347 347 346 346 343 339 341 343 344 342 342 345 341 341 339 340 346 342 340
Wind_Speed
16 19 21 20 19 19 19 17 15 14 14 14 14 13 12 11 10 10 10 10 11 11 11 11 9 9 7 8 8 8 11 12 9 12 11 9 7 7 10 13 13 10 11
21 20 20 19 19 17 17 15 14 13 12 12 12 10 9 8 8 9 8 8 8 11 11 11 12 10 9 9 9 11 10 9 8 8 7 7 8 8 8 9 11 10 9
21 20 19 19 18 16 16 14 13 12 12 11 11 10 9 8 8 7 8 7 7 9 12 13 11 9 10 10 9 10 10 10 9 10 14 6 4 6 6 7 8 9 9
20 19 18 19 18 17 15 13 11 11 10 10 10 10 9 7 7 7 7 7 7 8 8 9 8 7 8 10 10 11 10 9 8 10 9 6 4 5 6 6 6 7 8
21 18 19 19 18 16 13 11 9 8 8 8 8 8 7 6 7 7 7 9 7 6 7 9 8 8 9 10 9 8 8 7 7 9 6 8 4 5 7 7 6 7 10
21 19 20 19 16 13 11 9 8 8 6 7 7 7 6 5 6 6 7 8 6 8 6 7 9 8 9 9 7 6 7 8 8 6 6 11 6 4 6 7 6 7 6
21 18 20 18 15 12 10 8 7 6 6 7 8 7 5 4 4 5 6 5 6 5 5 6 7 7 6 6 6 6 8 9 6 5 5 4 5 6 6 7 7 6 6
19 17 17 17 14 11 9 8 7 7 7 7 7 6 5 5 3 4 3 4 4 4 4 5 5 5 5 5 6 7 9 6 2 4 6 5 8 5 4 7 4 4 4
18 16 15 14 14 12 9 8 7 7 7 5 6 6 5 4 3 3 4 3 4 2 2 3 3 4 6 6 6 7 7 7 4 4 4 7 7 4 4 6 3 3 3
17 15 15 13 10 11 9 9 7 7 6 5 5 4 3 2 2 2 0 2 2 3 5 5 5 6 6 8 9 9 9 7 5 5 6 7 10 8 5 7 7 5 4
17 16 15 14 11 11 10 8 8 7 6 5 4 4 3 2 5 1 7 5 4 6 6 7 8 9 9 8 10 10 11 7 9 9 8 14 10 9 7 9 6 6 5
18 17 15 14 12 10 8 8 8 7 6 7 7 8 7 4 4 5 5 5 8 9 10 11 11 11 10 11 11 11 8 8 11 11 12 14 11 11 13 10 10 7 7
18 17 15 14 14 12 10 9 8 7 8 9 9 7 7 5 6 8 10 9 10 12 12 11 11 10 10 12 15 13 10 11 12 13 14 19 16 14 13 14 13 11 9
19 18 16 14 14 13 10 9 14 14 11 8 9 10 7 10 10 12 13 10 10 10 11 11 13 14 14 14 14 14 13 15 11 13 15 22 20 18 17 17 16 16 15
17 17 17 16 16 14 14 12 12 12 11 9 10 10 11 13 11 10 12 12 12 11 11 11 13 14 15 15 15 15 15 16 16 14 14 21 22 19 18 17 20 21 21
16 16 16 16 16 15 13 13 11 10 11 14 12 11 11 12 12 11 12 12 13 11 10 11 12 16 13 14 16 17 16 15 17 19 20 16 20 19 21 20 21 21 22
17 15 15 15 15 13 13 12 10 12 11 11 13 13 15 16 15 16 17 16 13 13 13 12 12 14 16 21 18 18 21 20 23 23 22 22 18 19 24 23 21 20 20
16 16 14 13 13 14 13 13 12 11 11 11 12 11 12 15 17 20 21 19 12 14 15 13 13 12 16 18 20 21 21 22 22 20 20 18 21 20 19 20 23 21 20
16 15 15 15 14 15 14 13 12 12 12 11 12 14 15 15 20 18 20 20 18 16 19 15 16 17 16 18 19 20 24 28 26 23 21 18 18 20 18 18 20 19 20
16 16 16 15 15 15 15 15 13 13 12 11 12 15 12 16 19 16 16 18 19 17 20 19 17 19 18 16 17 16 18 21 23 22 22 19 19 16 18 21 17 19 19
17 17 16 16 16 16 18 15 11 12 15 18 19 18 17 19 21 16 20 19 17 15 17 21 21 19 19 15 18 16 18 17 21 23 22 23 22 22 18 17 18 18 17
18 17 17 16 16 18 14 16 16 13 11 13 15 17 15 11 9 12 14 13 14 16 15 16 16 17 18 14 15 17 11 11 16 19 22 22 23 22 23 20 16 18 17
18 18 17 17 17 16 16 17 17 17 16 16 13 10 11 11 10 10 11 12 13 16 16 17 17 17 16 16 12 15 10 7 13 12 8 13 15 19 22 20 22 22 17
18 16 17 17 19 18 17 17 17 15 16 13 11 12 8 10 10 9 9 12 12 13 16 15 16 17 18 19 16 16 17 20 11 4 5 6 7 9 14 18 21 19 22
17 16 14 17 18 17 17 17 16 18 14 14 13 13 15 7 8 9 10 9 10 13 15 16 16 17 19 18 17 16 17 15 15 17 13 8 8 6 5 8 12 20 20
16 16 15 19 18 18 18 17 14 13 16 13 8 7 11 14 8 9 10 10 11 13 14 15 15 16 17 18 17 16 14 12 8 11 14 11 8 9 7 6 8 11 14
Wind_Direction
146 149 145 147 138 135 136 132 131 134 136 141 139 136 128 121 121 130 141 134 136 142 146 157 150 147 139 137 119 118 146 141 123 128 125 122 104 110 106 104 77 107 105
146 149 149 151 144 140 136 134 135 135 137 141 147 154 143 133 132 134 137 126 121 128 146 143 146 138 140 147 132 118 126 136 129 131 120 90 95 105 113 119 134 116 109
146 149 149 151 148 143 140 135 136 134 136 141 142 144 140 132 127 133 138 125 114 124 141 151 149 132 127 129 129 134 129 129 122 114 102 116 122 112 125 129 127 117 117
148 146 151 153 150 144 139 137 130 128 131 134 134 133 131 125 118 116 136 141 123 128 143 157 160 161 147 137 132 127 129 125 118 116 94 135 122 128 122 124 125 114 119
149 151 165 154 152 148 144 139 133 131 137 139 141 140 134 127 115 107 112 119 121 129 134 154 154 163 164 149 136 137 142 136 122 101 129 127 114 130 128 129 108 120 120
149 154 163 156 156 152 149 143 138 129 138 147 145 146 139 128 118 115 117 121 120 115 121 143 151 149 162 154 149 155 157 141 111 131 134 137 117 170 149 139 138 139 143
150 160 156 159 160 159 159 146 145 135 131 136 143 140 140 128 115 116 128 117 117 128 132 128 139 147 162 171 172 163 154 140 137 139 148 148 186 164 141 139 141 146 144
153 158 163 163 167 166 162 154 151 141 128 130 141 138 143 135 121 122 102 119 114 106 127 141 150 157 176 186 187 175 177 168 170 252 204 170 226 170 165 159 157 152 154
160 161 164 163 168 168 168 163 160 151 146 135 142 146 146 143 138 148 156 148 147 146 184 216 199 191 177 186 192 198 210 221 192 242 193 183 230 193 176 170 199 178 171
165 167 166 163 174 171 177 175 175 167 167 163 166 162 170 162 176 183 338 252 219 217 222 234 253 241 210 207 207 222 236 243 234 259 211 208 228 224 210 198 199 214 195
172 174 172 167 177 177 179 186 182 178 185 181 181 191 200 207 247 249 245 266 271 266 263 256 250 243 243 239 233 233 238 246 237 245 234 239 237 233 223 208 217 214 206
179 180 184 178 178 183 188 186 188 200 204 210 196 221 214 219 258 268 249 286 297 280 286 269 263 258 255 265 257 272 254 250 251 238 239 243 229 238 235 235 227 221 216
183 185 192 189 185 193 194 199 193 205 214 213 225 226 233 240 251 266 258 274 282 282 276 271 278 283 256 247 263 238 236 249 250 255 251 257 242 238 238 239 237 233 240
187 192 196 200 198 200 204 214 209 200 206 227 232 238 234 256 259 252 257 263 285 285 277 279 254 254 259 256 252 273 265 247 243 254 259 264 256 249 244 246 245 242 238
192 196 198 202 213 207 213 226 222 224 228 235 249 247 249 258 264 259 259 263 269 277 275 270 260 259 260 260 258 259 267 268 263 261 251 262 266 249 245 251 249 244 242
194 200 201 204 213 218 217 226 232 224 236 229 235 247 261 259 261 265 266 273 273 275 272 266 261 252 242 256 258 256 256 263 265 266 259 257 264 254 248 258 252 249 245
202 201 204 208 212 220 224 229 234 237 234 249 253 253 263 269 270 272 262 270 271 267 270 269 272 258 259 247 255 259 268 264 267 266 260 252 239 263 260 255 248 246 240
204 208 208 212 214 221 221 230 228 235 240 247 250 260 270 280 286 283 280 276 266 265 263 268 258 252 253 261 261 258 256 262 274 273 267 260 236 241 259 259 247 247 243
209 212 218 219 220 220 236 231 237 242 252 253 256 273 276 285 306 280 285 278 270 264 261 258 267 272 261 256 257 262 265 262 267 268 260 257 253 249 251 250 247 246 242
214 221 222 226 231 232 241 248 242 243 251 261 270 271 286 277 311 315 303 281 273 269 268 268 260 266 272 271 272 266 263 266 264 261 267 261 257 244 251 238 247 250 238
219 221 226 230 227 236 247 240 245 252 261 266 274 286 290 292 285 298 307 297 269 269 265 268 271 278 279 277 276 279 270 272 261 262 264 253 260 248 250 234 230 235 247
220 222 228 239 246 245 232 244 239 240 247 275 292 296 293 288 290 304 304 281 267 269 269 276 281 285 281 282 290 291 294 279 285 276 260 259 251 252 245 232 221 232 231
221 227 233 244 252 245 230 251 251 259 266 272 273 286 291 279 289 297 298 289 272 275 276 278 281 282 282 282 285 284 291 283 302 294 276 262 255 245 235 230 230 232 237
220 225 230 240 250 249 247 240 248 239 242 243 273 287 315 263 256 272 285 286 284 282 275 278 280 274 270 273 274 274 282 272 282 281 248 268 255 235 231 233 229 241 238
218 223 225 237 251 238 251 244 252 248 250 264 276 283 280 263 245 253 271 286 301 292 284 285 280 277 274 271 268 287 297 282 274 252 275 277 244 272 252 231 251 235 240
219 223 220 236 244 250 247 244 252 265 250 277 286 308 315 223 228 250 280 281 293 290 290 287 282 278 279 273 271 282 286 280 286 261 266 277 291 257 250 253 242 231 227